This is the latest recevied weather packets stored in our database for station/object DH1FR-13. If no packets are shown the sender has not sent any weather packets the latest 10 day(s).
| Time | Temp. | Humidity | Pressure | Rain* | Wind** | Luminosity | Snow |
|---|---|---|---|---|---|---|---|
| 1776887400 | 7.22° C | 74% | 1029.2 hPa | 0 mm | 0 m/s | - | - |
| 1776886801 | 7.78° C | 74% | 1029.3 hPa | 0 mm | 0 m/s | - | - |
| 1776886200 | 7.78° C | 73% | 1029 hPa | 0 mm | 0 m/s | - | - |
| 1776885601 | 8.33° C | 72% | 1029.3 hPa | 0 mm | 0 m/s | - | - |
| 1776885001 | 8.89° C | 69% | 1029 hPa | 0 mm | 0 m/s | - | - |
| 1776884401 | 8.89° C | 68% | 1028.8 hPa | 0 mm | 0 m/s | - | - |
| 1776883801 | 9.44° C | 66% | 1028.8 hPa | 0 mm | 0 m/s | - | - |
| 1776883201 | 10° C | 66% | 1028.5 hPa | 0 mm | 0 m/s | - | - |
| 1776882600 | 10.56° C | 65% | 1028.4 hPa | 0 mm | 0 m/s | - | - |
| 1776882001 | 10.56° C | 63% | 1028.2 hPa | 0 mm | 0 m/s | - | - |
| 1776881401 | 11.67° C | 62% | 1028.3 hPa | 0 mm | 0 m/s | - | - |
| 1776880800 | 12.22° C | 61% | 1028.1 hPa | 0 mm | 0 m/s | - | - |
| 1776880201 | 13.33° C | 53% | 1028.2 hPa | 0 mm | 0 m/s | - | - |
| 1776879601 | 14.44° C | 47% | 1028 hPa | 0 mm | 0 m/s | - | - |
| 1776879001 | 15° C | 45% | 1028.2 hPa | 0 mm | 0 m/s | - | - |
| 1776878401 | 16.11° C | 45% | 1028.2 hPa | 0 mm | 0 m/s | - | - |
| 1776877801 | 16.11° C | 43% | 1028.4 hPa | 0 mm | 0 m/s | - | - |
| 1776877201 | 16.67° C | 42% | 1028.2 hPa | 0 mm | 0 m/s | - | - |
| 1776876601 | 16.11° C | 43% | 1028.2 hPa | 0 mm | 0 m/s | - | - |
| 1776876001 | 16.11° C | 41% | 1028.1 hPa | 0 mm | 0 m/s | - | - |
| 1776875401 | 16.67° C | 42% | 1028.4 hPa | 0 mm | 0 m/s | - | - |
| 1776874800 | 16.67° C | 42% | 1028.4 hPa | 0 mm | 0 m/s | - | - |
| 1776874200 | 17.22° C | 42% | 1028.4 hPa | 0 mm | 0 m/s | - | - |
| 1776873601 | 17.22° C | 42% | 1028.3 hPa | 0 mm | 0 m/s | - | - |
| 1776873001 | 17.78° C | 41% | 1028.3 hPa | 0 mm | 0 m/s | - | - |
* Rain latest hour (hover to see other rain measurements)
** Current wind speed in m/s (hover to see current wind gust speed)